Location: Observatoire
(46.1952°N, 5.3391°E)
Time: 09:18:45
(UTC+01:00)

A-11 Canister half - Pass Details

Date: 20 February 2026
Orbit: 1524 x 1683 km, 47.3° (Epoch: 12 March)

Event Time Altitude Azimuth Distance (km) Brightness Sun altitude
Rises 19:23:49 0° 272° (W) 4,699 13.6 -13.1°
Reaches altitude 10° 19:26:53 10° 273° (W) 3,705 12.5 -13.7°
Maximum altitude 19:36:15 84° 3° (N) 1,535 9.0 -15.3°
Enters shadow 19:42:57 22° 91° (E) 2,875 9.8 -16.4°
Drops below altitude 10° 19:45:37 10° 92° (E) 3,707 - -16.9°
Sets 19:48:40 0° 94° (E) 4,702 - -17.4°
